星链-32094 (STARLINK-32094 )

导读

STARLINK-32094是美国太空探索技术公司SpaceX星链星座的一颗卫星,于北京时间2024年5月8日发射升空,属于星链网络扩容的批次卫星。该卫星旨在为全球提供高速低延迟互联网接入服务,尤其覆盖偏远与网络基础设施匮乏区域,进一步扩充星链星座的服务容量与全球覆盖能力。

基本信息
目录编号:
59696
目录名称:
STARLINK-32094
国际标识:
2024-086Q
轨道中心:
EARTH
卫星名称:
星链-32094
卫星全名:
星链-32094 (STARLINK-32094 )
卫星状态:
在轨 (已飞行849 天)
发射日期:
2024-05-08 UTC
国别 :
美国 (US)
星等 :
--
轨道信息
数据来源 国际轨道数据 AOE轨道数据
星历时间 2026-09-04T00:54:39+0800
12小时前
查看轨道信息
2026-09-03T22:00:00+0800
14小时前
查看轨道信息
半长轴 6861.19km 6861.182km
偏心率 0.0001358 0.0001453
轨道倾角 43.002° 43.002°
近地点辐角 268.331° 258.797°
升交点赤经 134.865° 135.551°
平近点角 91.738° 153.531°
近地点 482.121km 482.048km
远地点 483.985km 484.042km
周期 94.267分钟 94.267分钟
每日圈数 15.275788 15.275817
详细信息
固有亮度:
5
最大亮度:
1.5
卫星平台:
Starlink v2.0 mini
覆盖范围:
全球
运营商:
太空探索技术公司
运营商所在国:
美国
制造商(研发单位):
太空探索技术公司
制造商所在国:
美国
使用方式:
暂无
卫星简介
星链(Starlink)计划是由太空探索技术公司(SpaceX)提出的一个巨型低轨卫星互联网星座项目,计划在2019年至2024年间在太空搭建由约1.2万颗卫星组成的“星链”网络,其中1584颗将部署在地球上空550千米处的近地轨道,并从2020年开始工作。该卫星仍在工作。
2D轨道图
3D轨道图
轨道高度分析图
轨道倾角分析图
轨道综合分析图
查看轨道综合分析图